sat.trackr.live / text

‹ back to catalog

STARLINK-4204

NORAD 52854 · 2022-062AA

PAYLOAD ACTIVE UNKNOWN

§ Identity

Operator
Country
US
Launch date
2022-06-17
Launch site
AFETR
Launch vehicle
Mass (kg)
RCS (m²)

Purposes: comms

External: N2YO · Heavens-Above · Gunter

§ Orbital elements

Epoch: 2026-09-20T04:00:03.000096Z

Period
93.85 min
Inclination
53.1599°
Eccentricity
0.0001180
Mean motion
15.34393564 rev/d
Perigee alt
461.9 km
Apogee alt
463.5 km
Semi-major
6,840.9 km
B*
-2.0220e-4
RAAN
218.9298°
Arg perigee
91.3104°
Mean anomaly
332.3023°
Rev number
586

§ Raw data

STARLINK-42041 52854U 22062AA  26263.16670139 -.00007200  00000+0 -20220-3 0  99972 52854  53.1599 218.9298 0001180  91.3104 332.3023 15.34393564  5863

JSON: /api/v1/satellites/52854 · /tle

For live sub-satellite position, see the globe view (requires WebGL).

§ Visibility from observer

Set your observer location to see the next 7 days of passes ≥ 10°. The values pass through the URL so the page stays shareable.

No JS? Fill the form by hand. The geolocation button needs JavaScript.